Weather History for Fort Polk, LA

Change the Weather History Date:

Thursday, September 12, 2013

  Actual Average (KPOE) Record (KPOE)
Temperature  
Mean Temperature 84 °F -  
Max Temperature 98 °F 87 °F 97 °F (2013)
Min Temperature 69 °F 67 °F 64 °F (1997)
Cooling Degree Days 18    
Growing Degree Days 34 (Base 50)    
Moisture  
Dew Point 64 °F    
Average Humidity 60    
Maximum Humidity 88    
Minimum Humidity 26    
Precipitation  
Precipitation 0.00 in - - ()
Sea Level Pressure  
Sea Level Pressure 30.06 in    
Wind  
Wind Speed 1 mph (ESE)    
Max Wind Speed 8 mph    
Max Gust Speed -    
Visibility 9 miles    
Events      
Averages and records for this station are not official NWS values.
T = Trace of Precipitation, MM = Missing Value Source: NWS Daily Summary

Daily Weather History Graph

Daily Weather History Graph

Search for Another Location

Airport:

Trip Planner

Search our weather history database for the weather conditions in past years. The results will help you decide how hot, cold, wet, or windy it might be!

Date:

Astronomy

Sep. 12, 2013 Rise Set
Actual Time 6:54 AM CDT 7:20 PM CDT
Civil Twilight 6:30 AM CDT 7:45 PM CDT
Nautical Twilight 6:01 AM CDT 8:13 PM CDT
Astronomical Twilight 5:32 AM CDT 8:42 PM CDT
Moon 1:56 PM CDT (9/12) No Moon Set
Length of Visible Light 13h 15m
Length of Day
12h 26m
Waxing Crescent, 50% of the Moon is Illuminated
Sep 12
Waxing Crescent
Sep 12
First Quarter
Sep 19
Full
Sep 26
Last Quarter
Oct 4
New

Hourly Weather History & Observations

Time (CDT) Temp. Heat Index Dew Point Humidity Pressure Visibility Wind Dir Wind Speed Gust Speed Precip Events Conditions
12:54 AM 73.0 °F - 64.9 °F 76% 30.10 in 10.0 mi Calm Calm - N/A   Clear
1:54 AM 72.0 °F - 66.0 °F 81% 30.10 in 10.0 mi Calm Calm - N/A   Clear
2:54 AM 71.1 °F - 66.0 °F 84% 30.10 in 10.0 mi Calm Calm - N/A   Clear
3:54 AM 70.0 °F - 64.9 °F 84% 30.10 in 9.0 mi Calm Calm - N/A   Clear
4:54 AM 69.1 °F - 64.9 °F 87% 30.10 in 9.0 mi Calm Calm - N/A   Clear
5:54 AM 69.1 °F - 64.9 °F 87% 30.10 in 7.0 mi Calm Calm - N/A   Clear
6:54 AM 69.1 °F - 64.9 °F 87% 30.12 in 5.0 mi Calm Calm - N/A   Clear
7:20 AM 69.8 °F - 66.2 °F 88% 30.04 in 2.5 mi Calm Calm - N/A   Clear
7:41 AM 69.8 °F - 66.2 °F 88% 30.05 in 3.0 mi Calm Calm - N/A   Clear
7:54 AM 72.0 °F - 66.9 °F 84% 30.12 in 5.0 mi Calm Calm - N/A   Haze
8:54 AM 84.0 °F 89.0 °F 71.1 °F 65% 30.12 in 10.0 mi Variable 3.5 mph - N/A   Clear
9:54 AM 88.0 °F 92.1 °F 69.1 °F 53% 30.12 in 10.0 mi Variable 3.5 mph - N/A   Clear
10:54 AM 89.1 °F 91.3 °F 66.0 °F 46% 30.12 in 10.0 mi Variable 3.5 mph - N/A   Partly Cloudy
11:54 AM 91.9 °F 94.1 °F 64.9 °F 41% 30.09 in 10.0 mi Variable 5.8 mph - N/A   Partly Cloudy
12:54 PM 93.9 °F 94.0 °F 61.0 °F 33% 30.08 in 10.0 mi Variable 4.6 mph - N/A   Partly Cloudy
1:54 PM 97.0 °F 97.4 °F 61.0 °F 30% 30.05 in 10.0 mi Variable 3.5 mph - N/A   Clear
2:54 PM 98.1 °F 97.2 °F 57.9 °F 26% 30.01 in 10.0 mi ESE 8.1 mph - N/A   Clear
3:54 PM 98.1 °F 97.2 °F 57.9 °F 26% 29.99 in 10.0 mi Variable 4.6 mph - N/A   Clear
4:54 PM 97.0 °F 96.1 °F 57.9 °F 27% 29.98 in 10.0 mi Calm Calm - N/A   Clear
5:54 PM 96.1 °F 96.0 °F 60.1 °F 30% 29.96 in 10.0 mi Calm Calm - N/A   Clear
6:54 PM 91.9 °F 91.5 °F 60.1 °F 34% 29.97 in 10.0 mi Calm Calm - N/A   Clear
7:54 PM 84.0 °F 84.4 °F 61.0 °F 46% 29.99 in 10.0 mi Calm Calm - N/A   Clear
8:54 PM 79.0 °F - 64.0 °F 60% 30.00 in 10.0 mi Calm Calm - N/A   Clear
9:54 PM 75.9 °F - 64.0 °F 67% 30.01 in 10.0 mi Calm Calm - N/A   Clear
10:54 PM 73.9 °F - 63.0 °F 68% 30.01 in 10.0 mi Calm Calm - N/A   Clear
11:54 PM 73.9 °F - 63.0 °F 68% 30.01 in 10.0 mi Calm Calm - N/A   Clear